Погода в Сантарене

Бразилия     2°27′24″S   54°43′04″W
темп.,
°C
ветер,
м/с
пор.,
м/с
влажн.,
%
обл.,
%
осадки,
мм/ч
давл.,
гПа
погр.,
м
27 февраля, сб
сб2700:00+24всв179097 0.0 1011314
03:00+24в179098 0.0 1009417
06:00+23всв1691100 0.0 1010332
09:00+25всв2684100 0.0 1011524
12:00+27всв368256 2.2 1011804
15:00+32всв365440 2.4 10061487
18:00+29в376351 0.0 1006743
21:00+26всв3107462 0.0 1008450
28 февраля, вс
вс2800:00+25всв298097 0.0 1010471
03:00+23всв289798 1.3 1008306
06:00+22в279994 0.3 1008290
09:00+24св279389 0.6 1010531
12:00+28св257427 1.3 1009984
15:00+30ссв246618 2.8 10061081
18:00+28сз018083 1.7 1004106
21:00+24ссв019391 5.0 100724
1 марта, пн
пн100:00+24в1196100 0.9 100825
03:00+23всв1496100 4.9 1006122
06:00+23всв1798100 4.3 1007362
09:00+23с1498100 6.1 1009268
12:00+24ссз1296100 1.4 1010207
15:00+26св248696 3.4 1006741
18:00+25всв128098 0.0 1005167
21:00+24юв118899 0.0 100828
2 марта, вт
вт200:00+24ююв1192100 0.1 100946
03:00+23вюв1699100 3.6 1007243
06:00+22в2109895 0.3 1008417
09:00+24всв389291 0.3 1011511
12:00+28всв377293 0.4 10101022
15:00+29в376861 2.8 10071180
18:00+26вюв259131 1.9 1007278
21:00+24юв259566 1.9 1010144
3 марта, ср
ср300:00+23юв1497100 0.6 1012113
03:00+22вюв2799100 3.0 1010240
06:00+22в299895 1.6 1011411
09:00+24всв279192 1.6 1013507
12:00+30всв375870 0.0 10131320
15:00+31всв375282 0.1 10091757
18:00+29всв165978 0.0 1009824
21:00+23с129589 2.8 101226